Погода в Усоле

Россия / Республика Марий Эл     56°43′23″N   49°28′14″E
темп.,
°C
ветер,
м/с
пор.,
м/с
влажн.,
%
обл.,
%
осадки,
мм/ч
давл.,
гПа
погр.,
м
4 марта, чт
чт400:00−9юз489598 0.1 1002193
03:00−7юз5109399 0.1 1000364
06:00−6юз51194100 0.1 997375
09:00−3юз61092100 0.1 995717
12:00−1ююз6109599 0.2 991776
15:00−1юз71395100 2.5 988921
18:00−2з8157882 2.4 987993
21:00−4з11188970 2.6 990926
5 марта, пт
пт500:00−7зсз71490100 0.1 994610
03:00−11зсз5119399 0.1 998328
06:00−15зсз489668 0.0 1001148
09:00−14сз478834 0.0 1003237
12:00−10зсз34840 0.0 1004266
15:00−8з36840 0.0 1005454
18:00−12зюз34930 0.0 100642
21:00−11юз379644 0.0 1008133
6 марта, сб
сб600:00−12з349684 0.1 100974
03:00−14зсз229786 0.1 101021
06:00−15сз229696 0.1 101122
09:00−15ссз249396 0.1 1012157
12:00−13сз238886 0.0 1012323
15:00−13сз358986 0.0 1011450
18:00−18сз239639 0.0 101120
21:00−20зсз339823 0.0 101237
7 марта, вс
вс700:00−20з34990 0.0 101246
03:00−20зюз339927 0.0 101239
06:00−21юз3410081 0.0 101156
09:00−17ююз469683 0.1 1010225
12:00−12ююз599197 0.0 1008492
15:00−11ю7128597 0.0 1005621
18:00−12ю71493100 0.3 1003725
21:00−10ю71591100 0.7 999697
8 марта, пн
пн800:00−8ююв71493100 0.5 994722
03:00−6ю61394100 1.6 991798
06:00−8юз71386100 1.2 989695
09:00−10юз7138082 1.2 990961
12:00−9юз8149078 0.4 9921441
15:00−8зюз9159189 1.7 9941150
18:00−8зсз61193100 0.9 996732
21:00−11зсз5119299 1.1 999484